Time,TemperatureF,DewpointF,PressureIn,WindDirection,WindDirectionDegrees,WindSpeedMPH,WindSpeedGustMPH,Humidity,HourlyPrecipIn,Conditions,Clouds,dailyrainin,SoftwareType,DateUTC
2013-02-02 00:03:00,10.0,4.0,-100.00,SW,225,1.0,3.0,76,0.00,,,-99.99,,2013-02-02 05:03:00,
2013-02-02 00:12:00,10.0,4.0,-100.00,SW,225,3.0,4.0,76,0.00,,,-99.99,,2013-02-02 05:12:00,
2013-02-02 00:22:00,10.0,4.0,-100.00,WSW,240,3.0,5.0,77,0.00,,,-99.99,,2013-02-02 05:22:00,
2013-02-02 00:33:00,10.0,4.0,-100.00,SW,230,4.0,6.0,75,0.00,,,-99.99,,2013-02-02 05:33:00,
2013-02-02 00:41:00,10.0,3.0,-100.00,WSW,245,3.0,6.0,74,0.00,,,-99.99,,2013-02-02 05:41:00,
2013-02-02 00:52:00,10.0,3.0,-100.00,SW,235,3.0,6.0,73,0.00,,,-99.99,,2013-02-02 05:52:00,
2013-02-02 01:02:00,10.0,3.0,-100.00,WSW,255,2.0,3.0,74,0.00,,,-99.99,,2013-02-02 06:02:00,
2013-02-02 01:12:00,10.0,3.0,-100.00,WSW,240,2.0,4.0,75,0.00,,,-99.99,,2013-02-02 06:12:00,
2013-02-02 01:22:00,9.0,3.0,-100.00,SW,235,2.0,5.0,74,0.00,,,-99.99,,2013-02-02 06:22:00,
2013-02-02 01:32:00,9.0,3.0,-100.00,West,265,1.0,3.0,75,0.00,,,-99.99,,2013-02-02 06:32:00,
2013-02-02 01:42:00,9.0,3.0,-100.00,South,185,1.0,2.0,76,0.00,,,-99.99,,2013-02-02 06:42:00,
2013-02-02 01:51:00,10.0,4.0,-100.00,SSW,210,4.0,7.0,75,0.00,,,-99.99,,2013-02-02 06:51:00,
2013-02-02 02:02:00,11.0,4.0,-100.00,SSW,210,2.0,6.0,72,0.00,,,-99.99,,2013-02-02 07:02:00,
2013-02-02 02:12:00,11.0,4.0,-100.00,SW,225,6.0,6.0,73,0.00,,,-99.99,,2013-02-02 07:12:00,
2013-02-02 02:21:00,11.0,4.0,-100.00,SW,225,5.0,7.0,72,0.00,,,-99.99,,2013-02-02 07:21:00,
2013-02-02 02:32:00,11.0,4.0,-100.00,SW,220,4.0,6.0,73,0.00,,,-99.99,,2013-02-02 07:32:00,
2013-02-02 02:42:00,11.0,4.0,-100.00,SW,215,4.0,9.0,72,0.00,,,-99.99,,2013-02-02 07:42:00,
2013-02-02 02:51:00,11.0,4.0,-100.00,SSW,205,4.0,6.0,73,0.00,,,-99.99,,2013-02-02 07:51:00,
2013-02-02 03:01:00,11.0,4.0,-100.00,SSW,205,4.0,8.0,73,0.00,,,-99.99,,2013-02-02 08:01:00,
2013-02-02 03:11:00,11.0,4.0,-100.00,SSW,210,6.0,9.0,73,0.00,,,-99.99,,2013-02-02 08:11:00,
2013-02-02 03:21:00,11.0,4.0,-100.00,South,185,4.0,7.0,73,0.00,,,-99.99,,2013-02-02 08:21:00,
2013-02-02 03:31:00,11.0,4.0,-100.00,South,190,4.0,5.0,73,0.00,,,-99.99,,2013-02-02 08:31:00,
2013-02-02 03:41:00,11.0,4.0,-100.00,South,180,4.0,6.0,73,0.00,,,-99.99,,2013-02-02 08:41:00,
2013-02-02 03:52:00,11.0,4.0,-100.00,South,180,4.0,8.0,73,0.00,,,-99.99,,2013-02-02 08:52:00,
2013-02-02 04:01:00,11.0,4.0,-100.00,South,180,5.0,8.0,73,0.00,,,-99.99,,2013-02-02 09:01:00,
2013-02-02 04:11:00,11.0,5.0,-100.00,South,185,5.0,7.0,73,0.00,,,-99.99,,2013-02-02 09:11:00,
2013-02-02 04:22:00,12.0,5.0,-100.00,South,170,6.0,9.0,73,0.00,,,-99.99,,2013-02-02 09:22:00,
2013-02-02 04:32:00,11.0,5.0,-100.00,South,190,6.0,10.0,74,0.00,,,-99.99,,2013-02-02 09:32:00,
2013-02-02 04:42:00,12.0,5.0,-100.00,South,185,7.0,10.0,75,0.00,,,-99.99,,2013-02-02 09:42:00,
2013-02-02 04:52:00,12.0,6.0,-100.00,South,180,6.0,9.0,75,0.00,,,-99.99,,2013-02-02 09:52:00,
2013-02-02 05:02:00,12.0,6.0,-100.00,South,190,5.0,9.0,75,0.00,,,-99.99,,2013-02-02 10:02:00,
2013-02-02 05:11:00,13.0,6.0,-100.00,SSW,205,7.0,11.0,73,0.00,,,-99.99,,2013-02-02 10:11:00,
2013-02-02 05:21:00,13.0,6.0,-100.00,SSW,210,8.0,12.0,72,0.00,,,-99.99,,2013-02-02 10:21:00,
2013-02-02 05:32:00,13.0,6.0,-100.00,SSW,210,5.0,9.0,73,0.00,,,-99.99,,2013-02-02 10:32:00,
2013-02-02 05:42:00,13.0,6.0,-100.00,SW,215,7.0,9.0,73,0.00,,,-99.99,,2013-02-02 10:42:00,
2013-02-02 05:52:00,13.0,6.0,-100.00,SSW,210,6.0,9.0,73,0.00,,,-99.99,,2013-02-02 10:52:00,
2013-02-02 06:02:00,13.0,6.0,-100.00,South,185,6.0,9.0,73,0.00,,,-99.99,,2013-02-02 11:02:00,
2013-02-02 06:11:00,13.0,6.0,-100.00,SSW,195,6.0,9.0,73,0.00,,,-99.99,,2013-02-02 11:11:00,
2013-02-02 06:21:00,13.0,6.0,-100.00,SSW,205,7.0,9.0,73,0.00,,,-99.99,,2013-02-02 11:21:00,
2013-02-02 06:32:00,13.0,6.0,-100.00,South,185,7.0,9.0,73,0.00,,,-99.99,,2013-02-02 11:32:00,
2013-02-02 06:42:00,13.0,6.0,-100.00,SSE,160,6.0,12.0,74,0.00,,,-99.99,,2013-02-02 11:42:00,
2013-02-02 06:52:00,13.0,7.0,-100.00,SSE,160,6.0,8.0,75,0.00,,,-99.99,,2013-02-02 11:52:00,
2013-02-02 07:02:00,13.0,7.0,-100.00,South,185,6.0,9.0,76,0.00,,,-99.99,,2013-02-02 12:02:00,
2013-02-02 07:11:00,13.0,7.0,-100.00,South,185,6.0,11.0,75,0.00,,,-99.99,,2013-02-02 12:11:00,
2013-02-02 07:22:00,13.0,7.0,-100.00,SSW,200,6.0,9.0,75,0.00,,,-99.99,,2013-02-02 12:22:00,
2013-02-02 07:32:00,13.0,7.0,-100.00,SSW,205,7.0,10.0,74,0.00,,,-99.99,,2013-02-02 12:32:00,
2013-02-02 07:42:00,14.0,7.0,-100.00,South,185,6.0,9.0,75,0.00,,,-99.99,,2013-02-02 12:42:00,
2013-02-02 07:52:00,14.0,8.0,-100.00,South,185,6.0,11.0,76,0.00,,,-99.99,,2013-02-02 12:52:00,
2013-02-02 08:03:00,14.0,8.0,-100.00,SSW,210,6.0,11.0,76,0.00,,,-99.99,,2013-02-02 13:03:00,
2013-02-02 08:11:00,14.0,8.0,-100.00,South,185,9.0,12.0,77,0.55,,,-99.99,,2013-02-02 13:11:00,
2013-02-02 08:21:00,14.0,8.0,-100.00,South,190,9.0,14.0,78,0.00,,,-99.99,,2013-02-02 13:21:00,
2013-02-02 08:32:00,14.0,9.0,-100.00,South,170,8.0,14.0,79,0.00,,,-99.99,,2013-02-02 13:32:00,
2013-02-02 08:42:00,14.0,9.0,-100.00,South,180,9.0,14.0,80,0.00,,,-99.99,,2013-02-02 13:42:00,
2013-02-02 08:52:00,14.0,9.0,-100.00,South,185,10.0,16.0,81,0.55,,,-99.99,,2013-02-02 13:52:00,
2013-02-02 09:03:00,14.0,10.0,-100.00,South,180,9.0,13.0,83,1.10,,,-99.99,,2013-02-02 14:03:00,
2013-02-02 09:11:00,14.0,10.0,-100.00,South,175,12.0,17.0,83,0.55,,,-99.99,,2013-02-02 14:11:00,
2013-02-02 09:22:00,15.0,11.0,-100.00,South,190,9.0,14.0,83,0.00,,,-99.99,,2013-02-02 14:22:00,
2013-02-02 09:33:00,15.0,11.0,-100.00,South,180,11.0,17.0,83,0.00,,,-99.99,,2013-02-02 14:33:00,
2013-02-02 09:42:00,15.0,11.0,-100.00,SSE,165,10.0,19.0,83,0.00,,,-99.99,,2013-02-02 14:42:00,
2013-02-02 09:52:00,16.0,12.0,-100.00,SSW,210,9.0,15.0,83,0.00,,,-99.99,,2013-02-02 14:52:00,
2013-02-02 10:03:00,17.0,12.0,-100.00,SSW,205,11.0,16.0,83,0.00,,,-99.99,,2013-02-02 15:03:00,
2013-02-02 10:12:00,17.0,12.0,-100.00,South,185,12.0,17.0,82,0.00,,,-99.99,,2013-02-02 15:12:00,
2013-02-02 10:22:00,17.0,12.0,-100.00,SSW,200,9.0,15.0,81,0.00,,,-99.99,,2013-02-02 15:22:00,
2013-02-02 10:32:00,18.0,13.0,-100.00,South,190,9.0,14.0,80,0.00,,,-99.99,,2013-02-02 15:32:00,
2013-02-02 10:42:00,18.0,13.0,-100.00,South,170,12.0,17.0,80,0.00,,,-99.99,,2013-02-02 15:42:00,
2013-02-02 10:52:00,18.0,13.0,-100.00,South,190,9.0,16.0,81,0.00,,,-99.99,,2013-02-02 15:52:00,
2013-02-02 11:03:00,19.0,14.0,-100.00,South,175,7.0,16.0,82,0.00,,,-99.99,,2013-02-02 16:03:00,
2013-02-02 11:12:00,19.0,15.0,-100.00,South,185,7.0,17.0,84,1.10,,,-99.99,,2013-02-02 16:12:00,
2013-02-02 11:22:00,19.0,15.0,-100.00,South,180,10.0,15.0,85,0.55,,,-99.99,,2013-02-02 16:22:00,
2013-02-02 11:32:00,19.0,16.0,-100.00,SSW,200,9.0,13.0,85,0.55,,,-99.99,,2013-02-02 16:32:00,
2013-02-02 11:42:00,20.0,16.0,-100.00,South,175,7.0,16.0,85,0.55,,,-99.99,,2013-02-02 16:42:00,
2013-02-02 11:52:00,20.0,17.0,-100.00,SSW,195,8.0,12.0,86,1.10,,,-99.99,,2013-02-02 16:52:00,
2013-02-02 12:03:00,20.0,17.0,-100.00,South,185,9.0,16.0,86,0.55,,,-99.99,,2013-02-02 17:03:00,
2013-02-02 12:11:00,20.0,17.0,-100.00,SW,215,8.0,12.0,86,0.55,,,-99.99,,2013-02-02 17:11:00,
2013-02-02 12:22:00,20.0,17.0,-100.00,SW,215,10.0,14.0,86,0.00,,,-99.99,,2013-02-02 17:22:00,
2013-02-02 12:32:00,20.0,17.0,-100.00,SSW,210,10.0,13.0,86,0.00,,,-99.99,,2013-02-02 17:32:00,
2013-02-02 12:42:00,21.0,17.0,-100.00,SSW,205,9.0,12.0,86,0.00,,,-99.99,,2013-02-02 17:42:00,
2013-02-02 12:52:00,21.0,17.0,-100.00,SSW,205,8.0,12.0,86,0.00,,,-99.99,,2013-02-02 17:52:00,
2013-02-02 13:03:00,21.0,18.0,-100.00,SSW,200,7.0,12.0,86,0.00,,,-99.99,,2013-02-02 18:03:00,
2013-02-02 13:12:00,22.0,18.0,-100.00,SSW,195,7.0,11.0,84,0.55,,,-99.99,,2013-02-02 18:12:00,
2013-02-02 13:22:00,22.0,18.0,-100.00,SW,215,7.0,12.0,85,1.10,,,-99.99,,2013-02-02 18:22:00,
2013-02-02 13:32:00,22.0,18.0,-100.00,SW,215,7.0,12.0,85,1.10,,,-99.99,,2013-02-02 18:32:00,
2013-02-02 13:42:00,22.0,19.0,-100.00,SSW,205,9.0,15.0,85,0.00,,,-99.99,,2013-02-02 18:42:00,
2013-02-02 13:52:00,22.0,18.0,-100.00,SW,225,12.0,17.0,84,0.00,,,-99.99,,2013-02-02 18:52:00,
2013-02-02 14:02:00,22.0,18.0,-100.00,SW,220,9.0,17.0,83,0.00,,,-99.99,,2013-02-02 19:02:00,
2013-02-02 14:12:00,23.0,19.0,-100.00,SSW,210,9.0,16.0,84,0.00,,,-99.99,,2013-02-02 19:12:00,
2013-02-02 14:21:00,23.0,19.0,-100.00,SSW,210,11.0,14.0,84,0.00,,,-99.99,,2013-02-02 19:21:00,
2013-02-02 14:32:00,23.0,19.0,-100.00,SSW,210,10.0,13.0,85,0.00,,,-99.99,,2013-02-02 19:32:00,
2013-02-02 14:42:00,23.0,20.0,-100.00,SSW,205,9.0,12.0,85,0.55,,,-99.99,,2013-02-02 19:42:00,
2013-02-02 14:51:00,23.0,20.0,-100.00,SSW,210,9.0,12.0,85,0.00,,,-99.99,,2013-02-02 19:51:00,
2013-02-02 15:02:00,24.0,20.0,-100.00,SSW,205,8.0,14.0,86,0.00,,,-99.99,,2013-02-02 20:02:00,
2013-02-02 15:11:00,24.0,20.0,-100.00,SSW,210,7.0,13.0,85,0.00,,,-99.99,,2013-02-02 20:11:00,
2013-02-02 15:21:00,24.0,20.0,-100.00,SW,215,7.0,12.0,85,0.00,,,-99.99,,2013-02-02 20:21:00,
2013-02-02 15:32:00,24.0,21.0,-100.00,SW,215,7.0,12.0,85,0.55,,,-99.99,,2013-02-02 20:32:00,
2013-02-02 15:42:00,24.0,20.0,-100.00,SW,230,6.0,14.0,85,0.55,,,-99.99,,2013-02-02 20:42:00,
2013-02-02 15:52:00,25.0,21.0,-100.00,SW,235,6.0,12.0,86,0.00,,,-99.99,,2013-02-02 20:52:00,
2013-02-02 16:02:00,25.0,21.0,-100.00,WSW,240,6.0,10.0,87,0.00,,,-99.99,,2013-02-02 21:02:00,
2013-02-02 16:11:00,25.0,22.0,-100.00,WSW,250,6.0,9.0,88,0.55,,,-99.99,,2013-02-02 21:11:00,
2013-02-02 16:21:00,25.0,22.0,-100.00,WSW,240,7.0,9.0,88,0.00,,,-99.99,,2013-02-02 21:21:00,
2013-02-02 16:32:00,25.0,22.0,-100.00,WSW,245,7.0,9.0,88,0.55,,,-99.99,,2013-02-02 21:32:00,
2013-02-02 16:42:00,25.0,22.0,-100.00,SW,230,6.0,10.0,89,1.10,,,-99.99,,2013-02-02 21:42:00,
2013-02-02 16:52:00,25.0,22.0,-100.00,SW,235,7.0,10.0,91,0.00,,,-99.99,,2013-02-02 21:52:00,
2013-02-02 17:03:00,25.0,22.0,-100.00,SW,235,7.0,9.0,90,0.00,,,-99.99,,2013-02-02 22:03:00,
2013-02-02 17:12:00,25.0,22.0,-100.00,SW,225,6.0,8.0,91,0.00,,,-99.99,,2013-02-02 22:12:00,
2013-02-02 17:21:00,25.0,22.0,-100.00,SW,230,5.0,9.0,90,0.00,,,-99.99,,2013-02-02 22:21:00,
2013-02-02 17:32:00,25.0,22.0,-100.00,SW,225,6.0,9.0,90,0.00,,,-99.99,,2013-02-02 22:32:00,
2013-02-02 17:42:00,25.0,22.0,-100.00,SW,220,4.0,7.0,90,0.00,,,-99.99,,2013-02-02 22:42:00,
2013-02-02 17:52:00,25.0,22.0,-100.00,SW,235,6.0,9.0,90,0.00,,,-99.99,,2013-02-02 22:52:00,
2013-02-02 18:02:00,25.0,23.0,-100.00,SW,215,6.0,9.0,90,0.00,,,-99.99,,2013-02-02 23:02:00,
2013-02-02 18:11:00,25.0,23.0,-100.00,SW,220,4.0,7.0,91,0.00,,,-99.99,,2013-02-02 23:11:00,
2013-02-02 18:21:00,25.0,23.0,-100.00,SW,215,5.0,6.0,91,0.00,,,-99.99,,2013-02-02 23:21:00,
2013-02-02 18:32:00,25.0,23.0,-100.00,SW,215,4.0,6.0,92,0.00,,,-99.99,,2013-02-02 23:32:00,
2013-02-02 18:42:00,25.0,23.0,-100.00,SSW,210,3.0,6.0,92,0.00,,,-99.99,,2013-02-02 23:42:00,
2013-02-02 18:52:00,25.0,23.0,-100.00,SW,230,4.0,6.0,92,0.00,,,-99.99,,2013-02-02 23:52:00,
2013-02-02 19:02:00,25.0,23.0,-100.00,SW,215,3.0,5.0,92,0.00,,,-99.99,,2013-02-03 00:02:00,
2013-02-02 19:11:00,25.0,23.0,-100.00,SSW,210,4.0,5.0,92,0.00,,,-99.99,,2013-02-03 00:11:00,
2013-02-02 19:22:00,25.0,23.0,-100.00,SSW,205,4.0,6.0,92,0.00,,,-99.99,,2013-02-03 00:22:00,
2013-02-02 19:32:00,25.0,23.0,-100.00,SW,230,4.0,6.0,92,0.00,,,-99.99,,2013-02-03 00:32:00,
2013-02-02 19:42:00,25.0,23.0,-100.00,SW,235,4.0,6.0,93,0.00,,,-99.99,,2013-02-03 00:42:00,
2013-02-02 19:51:00,25.0,24.0,-100.00,WSW,240,4.0,6.0,93,0.00,,,-99.99,,2013-02-03 00:51:00,
2013-02-02 20:02:00,26.0,24.0,-100.00,WSW,240,3.0,6.0,93,0.00,,,-99.99,,2013-02-03 01:02:00,
2013-02-02 20:11:00,26.0,24.0,-100.00,West,260,7.0,9.0,93,0.00,,,-99.99,,2013-02-03 01:11:00,
2013-02-02 20:21:00,26.0,24.0,-100.00,West,265,6.0,11.0,92,0.00,,,-99.99,,2013-02-03 01:21:00,
2013-02-02 20:32:00,26.0,24.0,-100.00,West,270,7.0,10.0,90,0.00,,,-99.99,,2013-02-03 01:32:00,
2013-02-02 20:42:00,26.0,23.0,-100.00,West,265,6.0,9.0,89,0.00,,,-99.99,,2013-02-03 01:42:00,
2013-02-02 20:52:00,26.0,23.0,-100.00,West,280,6.0,9.0,88,0.00,,,-99.99,,2013-02-03 01:52:00,
2013-02-02 21:01:00,26.0,22.0,-100.00,West,270,6.0,9.0,87,0.00,,,-99.99,,2013-02-03 02:01:00,
2013-02-02 21:11:00,26.0,22.0,-100.00,West,280,4.0,7.0,86,0.00,,,-99.99,,2013-02-03 02:11:00,
2013-02-02 21:21:00,26.0,22.0,-100.00,WNW,285,4.0,6.0,87,0.00,,,-99.99,,2013-02-03 02:21:00,
2013-02-02 21:32:00,26.0,22.0,-100.00,WNW,285,5.0,8.0,87,0.00,,,-99.99,,2013-02-03 02:32:00,
2013-02-02 21:42:00,26.0,22.0,-100.00,West,275,4.0,6.0,87,0.00,,,-99.99,,2013-02-03 02:42:00,
2013-02-02 21:52:00,26.0,22.0,-100.00,West,260,1.0,3.0,87,0.00,,,-99.99,,2013-02-03 02:52:00,
2013-02-02 22:02:00,26.0,22.0,-100.00,West,260,3.0,5.0,88,0.00,,,-99.99,,2013-02-03 03:02:00,
2013-02-02 22:11:00,25.0,22.0,-100.00,WSW,250,2.0,4.0,88,0.00,,,-99.99,,2013-02-03 03:11:00,
2013-02-02 22:21:00,25.0,22.0,-100.00,WSW,250,2.0,3.0,88,0.00,,,-99.99,,2013-02-03 03:21:00,
2013-02-02 22:32:00,25.0,23.0,-100.00,WSW,240,2.0,3.0,89,0.00,,,-99.99,,2013-02-03 03:32:00,
2013-02-02 22:42:00,25.0,23.0,-100.00,WSW,255,2.0,6.0,90,0.00,,,-99.99,,2013-02-03 03:42:00,
2013-02-02 22:51:00,25.0,23.0,-100.00,WSW,245,2.0,4.0,90,0.00,,,-99.99,,2013-02-03 03:51:00,
2013-02-02 23:01:00,25.0,23.0,-100.00,SW,230,2.0,4.0,90,0.00,,,-99.99,,2013-02-03 04:01:00,
2013-02-02 23:11:00,25.0,23.0,-100.00,WSW,240,2.0,4.0,90,0.00,,,-99.99,,2013-02-03 04:11:00,
2013-02-02 23:21:00,25.0,23.0,-100.00,WSW,240,3.0,4.0,90,0.00,,,-99.99,,2013-02-03 04:21:00,
2013-02-02 23:32:00,25.0,23.0,-100.00,WSW,240,3.0,4.0,91,0.00,,,-99.99,,2013-02-03 04:32:00,
2013-02-02 23:42:00,25.0,23.0,-100.00,SW,235,4.0,6.0,91,0.00,,,-99.99,,2013-02-03 04:42:00,
2013-02-02 23:52:00,25.0,23.0,-100.00,WSW,255,4.0,8.0,91,0.00,,,-99.99,,2013-02-03 04:52:00,